Dewpoint
61 55 51 52 54 51 43 40 25 33 28 23 21 22 16 20 24 22 22 23 22 25 25 26 25 27 22 23 21 22 27 24 23 21 24 38 51 57 59 61 62 68 67 68 69 70 71 70 71 71 72 72 72 72 72 72 72 72 71 71 70 70 70 70 69 68 69 69 69 68 68 68 67 68 68 68 69 69 69 70 69 69 70 70 70 70 70 70 70 69 69 68 67 67 66 66 65
58 54 52 53 48 42 37 38 31 30 25 18 19 20 16 21 21 21 20 24 24 24 29 25 25 27 29 27 24 25 24 24 25 24 30 49 53 57 58 61 66 67 67 68 69 70 70 70 71 72 72 72 72 72 72 72 72 72 71 71 71 70 70 70 69 69 69 69 70 69 69 68 68 68 69 68 68 69 69 69 69 69 70 70 70 70 69 69 69 69 68 67 67 65 65 64 64
60 55 54 48 45 42 41 39 27 28 19 15 15 18 19 20 20 21 22 22 23 25 27 26 26 28 26 25 24 20 20 24 30 47 47 52 47 50 58 61 66 67 67 68 69 70 70 70 70 72 72 72 72 72 72 72 72 72 71 71 71 70 70 70 69 69 69 70 69 70 70 69 69 69 69 69 69 68 68 69 69 69 70 70 70 70 69 69 68 67 67 66 66 65 64 63 62
58 56 53 46 39 43 36 32 33 25 19 18 17 17 20 21 21 23 22 23 25 26 27 26 25 27 25 23 24 23 22 23 33 46 44 47 45 47 59 62 66 67 67 68 68 69 70 70 70 71 72 72 72 72 72 72 72 71 71 71 70 70 70 69 69 70 69 70 69 70 70 69 69 69 69 69 68 68 68 69 69 69 69 70 70 69 69 68 67 66 66 65 65 64 63 62 61
53 57 54 46 38 32 32 29 25 26 18 22 14 17 25 23 22 24 23 26 27 26 26 27 25 26 27 26 26 21 19 26 27 40 45 50 53 55 60 61 66 67 67 67 68 69 69 69 70 71 72 72 72 72 72 72 71 71 71 71 70 70 70 70 69 69 69 70 69 70 70 69 69 69 69 69 68 68 68 69 69 69 70 70 69 68 68 67 66 65 65 65 64 63 61 61 60
52 50 50 42 32 37 33 22 22 24 24 23 16 15 18 20 22 23 24 25 27 27 26 26 23 24 24 26 27 20 26 24 29 46 51 47 56 60 59 61 66 66 67 67 68 68 69 68 70 71 72 72 72 72 72 72 71 71 71 70 70 70 70 70 69 69 70 70 69 69 70 70 70 69 69 69 68 68 68 68 69 70 70 69 68 67 67 66 65 65 64 63 64 62 60 59 59
47 46 44 40 37 36 27 23 20 25 22 22 19 17 19 20 22 23 22 24 26 27 28 25 26 23 22 25 24 25 28 32 37 38 49 49 58 60 59 60 66 66 66 67 68 68 68 68 70 71 72 72 72 72 72 72 71 71 71 70 69 70 70 70 69 69 69 69 70 70 70 70 70 69 69 69 68 68 69 69 69 69 69 68 67 66 65 64 63 62 62 62 63 61 59 58 56
50 38 39 32 32 33 26 25 26 27 18 19 18 20 17 22 24 23 22 22 21 24 26 28 27 21 21 24 22 23 36 48 48 55 54 57 59 59 58 59 65 65 66 66 67 67 67 68 70 71 72 72 72 72 72 72 71 71 70 70 70 70 70 70 69 69 69 70 69 70 70 70 70 70 69 69 69 68 69 69 69 69 68 67 66 65 65 63 62 61 61 61 61 61 58 57 56
45 39 42 36 28 32 30 27 27 31 26 22 18 28 31 23 24 22 23 25 25 26 26 26 26 21 21 23 25 27 33 45 52 56 55 56 59 59 59 56 63 65 65 66 67 67 67 67 69 70 71 72 72 72 72 71 71 71 70 70 70 70 70 70 70 70 70 70 70 70 70 70 70 70 69 69 68 69 69 68 68 68 67 67 66 64 63 63 61 61 61 61 62 60 57 57 56
40 36 28 31 33 26 27 23 17 17 20 21 20 21 22 23 22 23 22 22 22 25 24 27 25 23 23 22 23 25 30 47 51 54 56 57 58 59 58 56 60 64 64 65 66 67 67 67 68 69 70 71 72 71 72 72 71 71 71 70 70 70 70 70 70 70 70 70 70 70 70 71 70 70 70 69 68 68 69 68 68 67 67 66 65 64 63 63 62 62 62 62 61 59 57 56 55
38 40 39 29 27 23 23 22 24 27 21 25 23 23 22 23 22 21 22 21 20 17 19 25 23 23 22 22 25 29 44 47 50 48 54 56 58 58 57 56 56 63 64 64 65 66 67 68 66 68 69 70 71 71 71 71 71 71 71 71 70 70 70 70 70 70 71 70 71 71 70 70 71 70 70 69 68 68 68 68 68 67 66 66 65 64 63 62 63 62 61 62 61 58 57 55 55
33 36 35 28 24 23 25 22 25 26 28 24 21 22 21 22 22 18 18 15 16 17 23 27 23 24 21 22 25 30 38 44 48 48 49 52 57 58 57 57 57 61 63 64 65 66 66 67 67 67 67 67 69 70 70 70 71 71 71 71 71 71 70 70 70 70 71 71 71 71 70 71 70 70 69 69 68 68 68 67 67 66 66 65 65 64 64 61 62 61 60 61 59 58 56 56 53
37 37 32 26 24 24 25 23 26 34 28 21 21 19 20 19 19 19 18 17 18 17 21 24 23 22 21 24 27 33 35 38 44 47 48 53 57 55 56 58 59 60 62 63 65 65 66 67 68 68 67 66 66 67 68 69 70 70 70 71 70 70 70 70 70 71 71 71 71 71 71 70 70 70 69 69 68 68 68 67 67 66 66 65 64 63 61 60 60 63 63 61 59 58 56 55 53
36 36 31 22 29 26 24 22 24 20 19 21 22 23 21 17 18 19 18 19 19 17 19 25 23 22 20 19 20 28 33 37 46 49 50 50 51 55 56 57 59 59 60 63 64 65 65 66 67 68 68 67 68 66 66 68 68 69 69 69 70 70 70 70 70 70 70 70 70 70 69 69 69 69 69 69 68 68 68 67 66 66 65 64 64 63 60 59 61 63 62 61 59 58 56 54 53
33 39 34 28 26 25 26 21 23 22 17 21 20 20 19 22 21 22 19 22 19 19 25 26 27 17 12 18 16 28 31 36 47 48 52 53 55 55 55 57 58 59 59 62 62 64 65 65 66 67 67 68 68 68 68 68 66 68 68 68 69 69 69 69 70 69 69 69 68 67 67 67 67 67 68 68 67 66 66 66 67 66 65 63 63 61 60 59 60 62 62 60 59 58 56 53 51
38 39 32 26 22 20 23 24 28 23 20 23 22 24 20 20 22 21 21 20 23 28 23 20 28 18 18 19 19 20 25 41 47 51 53 52 52 54 55 56 57 58 58 60 61 62 64 65 65 66 67 67 68 68 69 68 66 65 67 67 67 68 68 68 68 67 67 66 66 65 64 65 64 65 63 65 65 65 64 63 65 66 64 64 63 61 61 60 61 62 61 60 59 57 55 53 49
42 36 24 27 14 24 26 22 24 19 22 24 24 21 19 19 21 24 25 24 21 20 23 22 21 25 21 20 25 32 44 46 50 50 51 51 50 52 53 54 55 56 58 58 59 61 62 64 65 65 66 66 67 68 69 69 68 65 65 65 66 66 66 67 67 65 64 63 64 63 62 66 66 66 65 66 62 63 61 60 64 65 66 65 64 63 61 60 60 62 61 60 58 57 54 51 49
36 26 27 22 27 26 31 24 22 24 21 21 21 21 20 20 21 21 22 21 22 22 21 21 23 23 23 24 34 44 46 47 48 47 49 49 49 49 51 53 53 58 58 58 58 59 61 63 64 65 65 66 67 68 68 68 68 66 68 67 66 66 64 64 65 66 63 65 62 64 65 65 65 66 66 63 63 62 60 58 60 63 64 63 64 63 61 60 61 61 60 60 58 56 53 44 45
32 31 24 19 28 28 31 25 23 21 21 22 23 21 22 24 23 23 20 20 21 21 20 24 22 23 23 23 22 42 45 46 47 45 46 47 48 48 50 52 54 54 56 58 59 60 61 63 63 64 65 65 66 67 67 68 68 67 68 68 67 64 64 64 66 65 65 65 64 64 64 65 65 65 64 63 62 59 59 57 59 61 63 61 63 62 62 61 61 61 60 59 58 54 45 41 40
36 29 26 30 33 30 29 25 23 22 23 24 25 25 25 25 24 25 22 21 22 21 20 19 19 18 23 22 21 35 43 44 46 45 43 44 46 46 45 49 52 54 56 57 59 60 60 61 62 64 64 64 65 66 67 67 67 67 67 68 67 67 66 65 65 65 65 64 64 63 64 64 64 64 61 58 58 59 58 57 58 59 60 59 60 60 61 62 61 60 60 59 55 47 41 40 38
33 30 28 29 31 26 25 26 25 24 25 25 25 26 22 23 24 23 22 21 21 20 21 21 20 20 21 23 25 25 39 41 43 45 43 42 43 45 44 44 46 49 54 54 55 58 60 61 61 62 63 63 64 65 65 66 67 67 67 67 67 66 66 66 66 66 66 65 65 65 64 63 62 63 61 60 59 58 58 58 58 59 57 55 57 56 56 57 57 55 55 52 45 42 39 37 36
33 28 30 32 30 26 26 27 25 26 26 25 25 23 22 25 25 24 23 21 20 20 20 22 22 22 22 21 22 24 25 32 32 36 38 39 38 37 37 39 40 42 50 52 54 57 59 61 61 62 62 63 64 64 65 64 64 66 66 67 66 66 66 66 66 67 66 66 65 65 64 63 61 61 60 59 58 58 57 57 58 57 54 55 54 55 53 54 53 53 52 49 44 42 39 39 38
27 28 28 30 29 26 27 24 23 23 23 24 24 25 26 25 24 25 24 23 23 23 23 22 22 22 22 23 24 22 25 26 27 29 29 30 31 32 33 33 33 33 40 50 50 54 57 59 61 61 61 62 63 63 63 63 63 65 66 66 66 66 66 65 66 66 66 65 65 64 63 62 61 60 59 59 58 57 57 57 57 56 55 54 53 54 53 52 52 52 51 49 45 42 41 40 39
29 26 28 28 28 26 26 26 25 22 24 22 25 23 22 25 20 25 22 22 23 24 24 23 23 23 22 21 21 26 29 29 30 31 32 33 33 33 34 33 33 34 35 35 40 51 54 57 58 59 61 61 62 62 63 63 62 63 64 64 65 65 65 65 66 66 66 65 64 63 62 62 61 60 59 58 58 57 57 57 56 56 55 54 53 54 53 51 51 50 50 48 46 42 40 39 39
30 28 27 28 26 26 26 23 21 21 21 21 25 21 19 21 21 24 22 22 22 23 23 23 22 21 22 27 29 30 31 32 31 31 32 34 34 34 35 34 34 34 34 35 36 40 52 56 57 59 60 60 60 61 62 62 61 62 62 63 64 62 65 65 65 65 65 65 64 63 62 62 61 60 59 58 58 57 57 56 56 55 54 54 53 52 53 51 50 49 50 49 48 45 39 38 38
26 26 24 23 22 22 21 21 21 21 21 22 20 19 19 19 26 22 21 21 22 22 20 20 18 20 26 28 28 29 29 30 32 31 31 33 33 32 33 34 34 33 35 35 36 37 38 51 57 59 60 60 60 60 61 61 61 61 61 62 63 62 63 63 63 64 65 64 63 63 62 62 60 59 59 58 57 57 56 54 54 54 54 53 53 53 51 51 50 48 48 48 48 45 39 37 37
24 22 21 20 20 21 21 21 20 21 21 20 19 18 19 21 21 17 19 21 22 20 20 20 19 25 28 28 28 28 29 30 30 31 31 31 32 32 33 34 34 35 36 36 36 38 39 46 54 56 58 58 58 60 59 60 59 60 60 61 61 62 62 61 62 62 63 63 63 62 62 61 60 59 58 57 57 56 55 54 53 52 52 52 53 52 51 51 49 49 49 48 48 44 39 36 36
23 21 21 20 20 21 20 20 20 20 19 20 19 19 20 20 22 17 18 19 21 19 19 17 21 26 28 28 28 29 28 29 30 30 30 30 31 32 32 33 34 35 35 36 37 38 40 45 46 55 57 57 57 58 57 59 59 59 58 59 60 60 60 60 60 61 60 61 61 61 60 61 60 59 58 57 56 56 55 54 53 53 53 52 52 52 50 50 49 47 46 46 44 42 38 35 35
22 21 19 20 20 19 20 19 21 20 19 20 20 18 17 20 18 18 19 21 20 19 18 18 23 27 28 28 28 29 29 29 30 30 30 30 31 32 32 33 34 35 36 37 37 38 39 44 50 52 55 56 57 57 58 58 57 56 58 58 58 58 59 59 59 59 60 60 60 60 60 59 59 59 58 57 55 55 54 54 53 53 53 52 52 50 50 48 46 44 42 41 39 38 35 34 35
22 21 20 19 20 19 20 22 21 19 19 20 19 17 18 18 18 18 20 21 19 18 18 19 25 27 27 28 28 29 29 29 29 30 30 31 31 31 32 32 35 35 36 37 38 38 39 43 46 50 52 54 54 55 56 56 56 55 55 56 56 57 58 58 58 58 59 59 59 59 59 59 58 57 57 56 55 54 54 54 53 52 51 51 51 50 50 48 45 43 41 38 39 36 34 33 33
19 20 20 20 18 20 21 22 22 21 21 20 19 19 18 18 18 19 20 21 19 18 19 24 26 26 27 28 28 29 29 29 30 30 31 31 31 31 32 32 32 34 35 36 37 38 38 40 43 46 50 52 53 53 53 53 53 54 54 54 55 56 57 57 57 57 57 58 58 58 58 58 58 57 56 56 55 54 53 53 52 53 51 51 51 48 49 45 44 43 39 38 35 34 32 33 32
20 20 23 27 19 21 22 23 23 21 20 19 18 21 17 18 18 19 20 20 18 17 23 26 26 26 27 27 28 28 28 29 30 30 31 31 31 31 31 31 32 33 34 36 37 38 38 39 41 42 46 51 52 52 53 53 54 53 54 54 55 54 55 55 55 56 56 55 56 57 57 57 57 56 55 55 55 54 54 53 53 51 50 50 50 47 46 44 42 40 38 37 35 33 32 31 31
28 21 24 23 22 20 21 22 23 23 19 18 18 17 17 18 19 19 20 20 18 18 25 26 26 27 27 27 27 28 28 28 29 29 30 31 31 31 31 31 31 32 34 35 36 37 38 38 40 40 42 46 50 51 52 52 53 53 54 54 54 54 55 55 55 55 55 55 54 55 55 56 56 55 55 55 55 54 53 53 51 50 49 50 48 46 46 43 41 40 36 35 35 33 31 30 30
23 25 20 25 21 21 21 24 24 23 18 16 17 16 16 17 18 18 19 20 17 20 26 26 27 27 27 27 27 27 27 27 28 29 30 31 31 31 31 34 32 31 33 34 36 37 37 38 39 40 41 43 47 49 50 51 51 52 52 53 52 53 53 54 54 55 54 54 55 54 54 54 54 54 55 54 54 54 53 52 50 50 49 49 48 44 45 40 39 39 36 34 32 31 30 29 29
24 24 23 24 24 22 21 22 23 18 19 17 18 17 16 16 17 17 18 18 20 24 26 26 27 27 28 27 27 27 27 27 28 29 30 30 31 31 31 31 31 31 31 33 34 36 37 37 38 38 39 41 44 46 47 48 48 49 51 51 51 51 51 51 52 52 53 54 54 54 54 54 53 54 53 53 54 53 52 52 50 49 48 48 46 43 40 37 37 37 37 33 32 31 30 29 29
25 26 26 26 24 24 22 23 24 20 21 22 20 20 21 22 21 20 19 19 24 26 26 27 27 27 26 26 27 27 27 27 28 29 31 30 31 31 31 31 31 31 31 32 34 34 35 36 37 38 38 39 41 44 45 45 46 47 48 48 48 48 49 48 49 49 50 51 52 53 53 54 54 53 53 53 52 52 51 50 50 48 48 47 46 43 40 37 37 36 35 33 30 29 27 29 30
25 26 25 24 24 23 24 24 24 23 21 20 21 21 20 20 20 20 19 21 26 26 27 27 27 27 27 26 26 26 26 27 30 30 30 30 31 30 31 31 31 31 31 31 32 33 34 35 36 36 37 38 39 41 44 44 44 45 45 45 44 45 46 47 46 47 47 47 47 48 49 51 51 51 51 52 52 51 50 50 49 48 47 46 46 45 42 39 37 36 35 34 30 28 26 29 31
22 24 23 22 24 21 23 23 25 24 23 23 22 19 20 19 19 20 23 23 25 26 26 26 27 27 27 26 26 26 26 29 29 27 27 28 29 30 30 30 32 30 31 30 31 31 32 33 34 35 36 37 38 39 40 41 43 42 42 42 43 44 44 44 44 44 44 45 45 45 46 46 47 47 48 49 50 50 48 48 47 47 47 46 45 44 42 39 36 35 34 32 32 29 27 29 31
25 22 23 23 24 26 26 26 25 22 23 22 20 19 19 19 20 27 27 28 28 27 27 27 27 27 26 26 26 26 26 26 26 26 27 26 28 29 29 29 29 30 30 30 31 31 31 32 33 33 34 35 36 38 39 39 40 40 41 40 41 41 41 42 42 41 42 42 42 43 44 44 44 44 44 44 46 47 48 47 44 45 44 43 44 42 42 40 37 35 33 33 31 31 29 32 30
26 25 24 24 26 24 24 25 24 21 19 18 20 20 20 21 23 28 29 29 29 30 29 29 28 26 26 26 26 26 25 25 25 25 25 25 26 26 27 27 28 29 29 30 30 30 30 31 31 32 32 33 34 36 38 38 39 38 39 38 38 38 38 38 39 39 41 42 42 42 43 43 42 42 43 43 43 43 44 45 43 42 41 41 42 41 40 39 38 36 33 31 33 29 26 27 30
27 28 26 26 26 25 24 23 26 24 24 24 20 22 21 22 21 24 27 29 28 28 28 28 29 30 29 29 28 28 26 25 25 25 25 25 25 25 26 27 27 27 28 28 29 30 29 30 30 31 31 32 32 34 35 36 36 36 36 36 36 36 35 36 36 35 36 38 39 40 40 41 41 40 41 41 41 41 41 41 41 40 40 39 40 39 39 39 39 37 36 33 30 30 30 27 29
27 29 27 25 25 24 25 26 23 23 23 24 22 18 20 23 24 23 25 26 26 27 27 27 27 27 27 26 26 26 28 27 26 25 25 25 25 25 25 25 25 25 26 27 28 28 29 29 29 29 30 30 31 32 33 34 34 35 34 34 34 34 33 34 34 35 34 35 35 36 35 37 38 40 40 40 40 40 40 40 39 39 38 38 38 39 38 37 37 35 33 33 32 29 29 27 26
25 26 29 26 25 26 26 26 23 20 19 22 22 16 18 22 21 23 24 25 26 27 27 27 26 26 26 27 27 26 26 25 26 25 25 25 25 24 24 24 24 25 25 27 27 27 27 27 27 27 28 28 31 30 31 32 32 32 33 33 33 33 32 33 33 34 34 34 34 34 34 34 35 36 36 37 37 38 39 39 39 38 37 37 36 36 36 36 36 36 35 34 32 32 30 26 26
25 28 30 28 27 26 26 26 25 24 25 25 24 20 18 19 21 23 23 25 25 26 26 26 25 25 26 26 26 26 27 26 26 26 25 26 25 25 24 25 25 25 25 25 25 26 26 26 26 26 26 26 27 28 29 31 30 30 30 30 31 31 31 31 31 31 32 32 31 32 32 33 33 33 33 34 34 34 36 37 38 38 37 37 35 35 35 35 36 36 36 35 33 31 30 28 26
27 29 28 25 24 25 26 25 24 24 21 21 23 24 18 19 21 23 23 23 24 25 25 25 25 25 25 26 26 26 26 26 26 26 26 26 26 26 25 24 25 25 25 24 24 25 26 26 26 25 25 24 25 26 26 28 30 29 29 28 28 29 29 29 29 29 29 30 29 30 30 31 31 31 32 32 32 33 34 35 36 37 37 37 35 36 34 34 34 33 32 32 32 32 31 29 27
28 30 30 29 28 27 25 23 22 22 17 18 20 22 16 18 24 23 24 21 23 24 25 25 25 25 25 25 26 26 26 26 26 26 26 26 26 26 26 25 25 25 25 26 24 24 24 24 25 25 24 24 23 23 23 24 25 26 26 26 26 26 27 26 26 27 27 28 27 28 29 29 29 29 30 30 31 32 32 33 35 36 36 36 36 35 34 35 35 34 33 32 31 31 31 31 28
31 29 26 26 26 26 25 24 22 19 13 20 22 22 19 17 21 23 23 25 21 25 25 25 25 26 25 26 25 26 26 26 26 25 26 26 26 26 26 25 25 24 24 24 24 24 23 23 23 23 24 24 22 21 21 21 21 22 23 23 23 23 23 23 22 23 25 25 25 26 27 28 28 28 29 28 29 30 31 32 33 34 35 35 35 35 35 35 35 34 33 32 31 30 30 30 30
27 24 23 24 24 22 21 19 21 14 16 19 22 22 20 15 18 22 22 23 24 25 24 24 24 24 24 25 25 25 25 26 26 26 25 25 25 26 26 25 25 24 23 22 22 23 23 22 21 21 22 23 23 21 21 21 20 20 20 20 20 21 21 21 20 21 22 22 22 23 24 24 24 26 26 26 27 29 30 30 31 32 32 33 33 34 34 34 34 34 33 32 31 30 29 29 29
25 22 22 18 16 17 11 15 13 14 17 20 23 23 21 20 20 23 24 23 23 25 25 24 24 23 23 24 24 25 25 25 26 25 26 26 26 26 26 25 24 24 23 22 22 21 21 20 20 19 20 21 22 21 20 20 20 20 20 20 20 20 20 20 20 20 21 21 21 20 21 21 22 22 23 23 25 26 28 28 29 30 30 31 32 32 33 33 33 33 33 32 31 30 30 29 28
23 22 21 17 13 12 9 11 10 12 18 21 21 23 20 22 23 24 22 22 23 25 25 24 23 23 23 23 24 24 24 25 25 25 25 25 26 26 26 25 25 24 22 22 21 21 20 20 19 18 19 20 20 20 18 18 19 19 19 20 20 19 19 19 20 20 21 21 22 20 21 22 22 23 23 24 25 25 25 26 27 27 29 29 30 30 31 32 32 32 31 31 31 31 29 28 28
22 25 23 23 18 13 12 11 12 14 18 19 22 16 16 17 20 24 23 22 23 23 24 24 24 23 23 23 24 23 23 23 24 24 25 25 26 26 26 25 24 24 23 21 20 19 19 19 19 18 18 19 20 20 19 18 18 18 18 19 19 20 19 18 20 22 21 21 21 20 20 21 22 22 23 24 24 24 24 24 25 25 26 27 28 29 29 30 31 31 31 31 31 31 30 29 29
24 26 25 20 21 24 18 20 13 12 14 14 17 18 20 22 24 23 22 21 21 23 23 23 22 22 22 21 21 22 22 23 24 24 24 24 25 25 25 25 24 23 22 22 20 20 20 20 19 20 20 20 20 20 20 20 19 19 19 18 18 20 21 19 20 20 20 22 21 22 21 21 22 23 23 24 23 23 23 23 23 23 24 25 26 27 28 28 29 30 30 31 30 31 30 30 30
25 24 20 25 28 25 19 21 21 18 15 20 14 22 24 23 23 22 22 20 20 20 20 20 20 20 21 20 21 22 22 23 23 24 24 24 25 25 26 25 25 24 23 22 21 20 19 21 20 20 20 21 22 22 21 21 21 20 20 19 19 19 19 18 18 18 19 20 21 21 22 21 21 22 24 24 23 22 23 23 23 23 23 23 23 24 26 27 28 28 29 29 29 30 30 30 30
24 20 23 28 31 29 23 17 15 16 17 15 20 19 20 20 19 21 20 20 19 19 19 19 19 20 19 20 21 22 22 22 23 23 23 24 25 25 26 26 26 25 24 24 24 24 22 21 20 20 20 20 21 22 22 21 21 21 20 20 20 20 20 19 20 18 20 19 19 20 20 20 19 21 22 23 22 21 22 23 22 22 23 22 23 23 24 25 26 26 27 28 28 29 29 29 30
27 27 31 25 22 21 25 21 17 15 15 14 19 22 22 21 21 20 20 19 19 19 19 19 19 19 19 20 21 21 22 22 21 21 22 23 24 25 25 26 26 25 25 24 25 25 25 23 21 19 19 20 20 22 22 22 22 22 22 21 21 21 21 21 21 21 19 20 20 21 20 22 20 21 21 21 21 21 21 21 21 22 22 22 22 21 23 23 24 24 24 25 26 27 28 28 28
31 29 27 30 25 24 20 24 21 20 20 18 18 20 20 24 24 21 21 20 20 19 20 19 19 19 19 20 21 21 21 21 21 21 22 23 23 24 25 25 26 26 25 25 24 24 23 23 22 20 19 18 18 18 19 20 22 19 19 19 19 21 20 20 19 20 18 18 20 21 20 21 21 20 21 21 21 21 21 21 21 21 21 21 21 20 21 21 22 22 23 23 24 26 26 26 27
25 25 23 25 24 27 26 23 23 23 20 22 21 20 21 23 25 23 22 21 20 19 20 20 19 19 20 19 20 20 21 21 21 22 22 22 22 23 25 25 25 25 25 24 23 21 21 22 21 19 17 17 18 18 18 20 21 18 17 16 17 18 16 19 15 18 18 18 20 22 20 21 21 19 21 19 19 20 21 21 21 21 21 21 21 21 20 21 21 20 20 21 23 24 24 24 25
26 25 25 25 23 21 21 22 25 20 21 18 19 19 18 25 26 25 24 23 21 21 20 20 19 19 20 20 20 20 21 21 21 21 21 21 21 22 23 24 24 24 24 24 23 23 21 20 21 21 20 18 17 18 17 18 19 17 15 15 15 16 16 16 13 15 17 17 19 20 20 20 19 20 20 19 19 20 20 20 20 20 20 20 21 20 20 20 20 20 19 21 22 22 22 22 23